Regional Weather Roundup
Issued by NWS

Home | Current Version | Previous Version | Graphics & Text | Print | Product List | Glossary On
Versions: 1 2 3 4 5 6 7 8 9 10 11 12 13 14 15 16 17 18 19 20 21 22 23 24 25 26 27 28 29 30 31 32 33 34 35 36 37 38 39 40 41 42 43 44 45 46 47 48 49 50
000
ASUS43 KOAX 021110
RWRNE

WEATHER ROUNDUP FOR NEBRASKA
NATIONAL WEATHER SERVICE OMAHA NE
600 AM CDT MON MAY 02 2016

NOTES: SATELLITE DATA IS BEING USED TO AUGMENT CLOUD COVER ABOVE
       12000 FEET.
       "FAIR" INDICATES FEW OR NO CLOUDS BELOW 12,000 FEET WITH NO
       SIGNIFICANT WEATHER AND/OR OBSTRUCTIONS TO VISIBILITY.

  * THESE STATIONS DO NOT REPORT WEATHER SUCH AS RAIN...SNOW OR FOG.

NEZ001>004-019>022-054>056-021200-
NEBRASKA PANHANDLE

CITY           SKY/WX    TMP DP  RH WIND       PRES   REMARKS
SCOTTSBLUFF    CLEAR     32  27  81 NW9       30.23S WCI  24
ALLIANCE       CLEAR     22  20  92 W6        30.20S WCI  14
CHADRON        CLEAR     31  28  89 SW5       30.21F WCI  26
KIMBALL        CLEAR     26  24  92 W6        30.23S WCI  19
SIDNEY         CLEAR     28  23  81 W12       30.22F WCI  18
$$

NEZ057>060-069>072-079>082-021200-
SOUTHWEST NEBRASKA

CITY           SKY/WX    TMP DP  RH WIND       PRES   REMARKS
NORTH PLATTE   CLEAR     27  26  96 NW7       30.20F WCI  19
IMPERIAL       CLEAR     33  28  81 NW7       30.22F WCI  27
LEXINGTON      CLEAR     32  31  94 W7        30.19F WCI  26
MCCOOK         MOCLDY    33  31  92 W6        30.21F WCI  28
OGALLALA       CLEAR     30  28  90 W5        30.22S WCI  25
$$

NEZ005>010-023>029-035>040-094-021200-
NORTH CENTRAL NEBRASKA

CITY           SKY/WX    TMP DP  RH WIND       PRES   REMARKS
VALENTINE      CLEAR     28  25  88 W6        30.18F WCI  22
AINSWORTH      CLEAR     34  31  90 W5        30.17F WCI  30
BROKEN BOW     CLEAR     34  30  85 NW3       30.18F
O`NEILL        CLEAR     37  33  87 W7        30.17S WCI  31
ORD            CLEAR     30  29  96 CALM      30.16F
THEDFORD         N/A     30  29  96 W3        30.20S
$$

NEZ041-046>049-061>064-073>077-083>087-021200-
SOUTH CENTRAL NEBRASKA

CITY           SKY/WX    TMP DP  RH WIND       PRES   REMARKS
GRAND ISLAND   CLEAR     36  34  92 W8        30.17F WCI  30
AURORA         MOCLDY    38  37  97 NW3       30.17S
HASTINGS       CLOUDY    42  38  85 NW8       30.17S
HEBRON         CLOUDY    46  43  88 NW6       30.16S
HOLDREGE       CLEAR     35  33  94 NW5       30.19S WCI  31
KEARNEY *      CLEAR     36  32  87 NW7       30.18F WCI  30
YORK           CLOUDY    41  39  93 NW8       30.16S
$$

NEZ011>018-030>034-042>045-021200-
NORTHEAST NEBRASKA

CITY           SKY/WX    TMP DP  RH WIND       PRES   REMARKS
NORFOLK        CLEAR     35  32  88 W5        30.15S WCI  31
ALBION         CLEAR     32  30  92 NW5       30.17S WCI  27
BLAIR          CLOUDY    46  40  79 N8        30.12S
COLUMBUS *     CLEAR     37  28  70 W6        30.16F WCI  33
FREMONT        PTCLDY    40  40  99 W3        30.14F
TEKAMAH        MOCLDY    41  39  93 NW7       30.14S
WAYNE          CLEAR     32  31  97 SW3       30.16R
$$

NEZ050>053-065>068-078-088>093-021200-
SOUTHEAST NEBRASKA

CITY           SKY/WX    TMP DP  RH WIND       PRES   REMARKS
LINCOLN        CLOUDY    48  41  76 NW7       30.15F
OMAHA EPPLEY   CLOUDY    44  41  89 N6        30.13S
BEATRICE       CLOUDY    47  44  89 NW6       30.14S
FALLS CITY     CLOUDY    47  44  90 NW6       30.11F
NEBRASKA CITY  CLOUDY    47  45  91 N6        30.12S
PLATTSMOUTH    CLOUDY    46  43  90 NW7       30.13S
$$

NEZ044-045-051>053-067-021200-
OMAHA AREA

CITY           SKY/WX    TMP DP  RH WIND       PRES   REMARKS
OMAHA EPPLEY   CLOUDY    44  41  89 N6        30.13S
BLAIR          CLOUDY    46  40  79 N8        30.12S
FREMONT        PTCLDY    40  40  99 W3        30.14F
MILLARD        CLOUDY    45  42  87 W3        30.13S
OFFUTT AFB     CLOUDY    45  44  95 W6        30.12S
PLATTSMOUTH    CLOUDY    46  43  90 NW7       30.13S
WAHOO          CLOUDY    44  41  88 NW7       30.13F
$$




USA.gov is the U.S. government's official web portal to all federal, state and local government web resources and services.